ProjectID,Date,Electric Generation,Electric Utility Import,Facility Electric Load
,YYYY-MM-DD,kW,kW,kW
18,2006-08-28,70.6375,,70.6375
18,2006-08-29,127.2375,,127.2375
18,2006-08-30,117.05,,117.05
18,2006-08-31,118.64999999999999,,118.64999999999999
18,2006-09-01,94.05416666666667,,94.05416666666667
18,2006-09-02,136.30416666666667,,136.30416666666667
18,2006-09-03,127.55,,127.55
18,2006-09-04,120.21249999999999,,120.21249999999999
18,2006-09-05,118.65833333333335,,118.65833333333335
18,2006-09-06,118.83749999999999,,118.83749999999999
18,2006-09-07,118.0625,,118.0625
18,2006-09-08,113.8625,,113.8625
18,2006-09-09,118.33749999999999,,118.33749999999999
18,2006-09-10,119.23333333333333,,119.23333333333333
18,2006-09-11,118.85833333333333,,118.85833333333333
18,2006-09-12,118.23333333333333,,118.23333333333333
18,2006-09-13,118.97916666666667,,118.97916666666667
18,2006-09-14,67.05416666666666,,67.05416666666666
18,2006-09-15,111.16666666666667,,111.16666666666667
18,2006-09-16,113.89999999999999,,113.89999999999999
18,2006-09-17,115.22083333333335,,115.22083333333335
18,2006-09-18,82.29583333333333,,82.29583333333333
18,2006-09-19,87.13333333333333,,87.13333333333333
18,2006-09-20,95.72500000000001,,95.72500000000001
18,2006-09-21,96.15416666666665,,96.15416666666665
18,2006-09-22,79.82083333333334,,79.82083333333334
18,2006-09-23,109.60000000000001,,109.60000000000001
18,2006-09-24,108.77083333333333,,108.77083333333333
18,2006-09-25,109.69166666666666,,109.69166666666666
18,2006-09-26,94.88333333333333,,94.88333333333333
18,2006-09-27,94.97916666666667,,94.97916666666667
18,2006-09-28,82.33333333333333,,82.33333333333333
18,2006-09-29,62.6875,,62.6875
18,2006-09-30,101.89999999999999,,101.89999999999999
18,2006-10-01,83.06666666666666,,83.06666666666666
18,2006-10-02,83.32083333333334,,83.32083333333334
18,2006-10-03,78.58333333333333,,78.58333333333333
18,2006-10-04,78.32083333333334,,78.32083333333334
18,2006-10-05,72.45416666666667,,72.45416666666667
18,2006-10-06,75.44583333333334,,75.44583333333334
18,2006-10-07,75.34583333333333,,75.34583333333333
18,2006-10-08,75.27083333333333,,75.27083333333333
18,2006-10-09,75.28750000000001,,75.28750000000001
18,2006-10-10,75.29583333333333,,75.29583333333333
18,2006-10-11,75.79166666666667,,75.79166666666667
18,2006-10-12,66.5625,,66.5625
18,2006-10-13,77.50416666666666,,77.50416666666666
18,2006-10-14,77.33749999999999,,77.33749999999999
18,2006-10-15,77.25416666666666,,77.25416666666666
18,2006-10-16,77.29166666666667,,77.29166666666667
18,2006-10-17,80.90416666666667,,80.90416666666667
18,2006-10-18,87.13333333333333,,87.13333333333333
18,2006-10-19,82.45833333333333,,82.45833333333333
18,2006-10-20,85.45833333333333,,85.45833333333333
18,2006-10-21,91.05,,91.05
18,2006-10-22,83.48333333333333,,83.48333333333333
18,2006-10-23,79.41250000000001,,79.41250000000001
18,2006-10-24,79.95833333333333,,79.95833333333333
18,2006-10-25,75.7,,75.7
18,2006-10-26,68.6125,,68.6125
18,2006-10-27,74.52083333333333,,74.52083333333333
18,2006-10-28,82.33749999999999,,82.33749999999999
18,2006-10-29,62.0375,,62.0375
18,2006-10-30,104.45833333333333,,104.45833333333333
18,2006-10-31,79.825,,79.825
18,2006-11-01,73.8875,,73.8875
18,2006-11-02,80.47916666666667,,80.47916666666667
18,2006-11-03,66.71249999999999,,66.71249999999999
18,2006-11-04,71.175,,71.175
18,2006-11-05,64.59166666666667,,64.59166666666667
18,2006-11-06,62.32916666666667,,62.32916666666667
18,2006-11-07,62.27916666666667,,62.27916666666667
18,2006-11-08,62.30416666666667,,62.30416666666667
18,2006-11-09,63.10833333333333,,63.10833333333333
18,2006-11-10,73.64999999999999,,73.64999999999999
18,2006-11-11,60.3375,,60.3375
18,2006-11-12,62.97083333333333,,62.97083333333333
18,2006-11-13,68.19583333333334,,68.19583333333334
18,2006-11-14,57.38333333333333,,57.38333333333333
18,2006-11-15,57.40416666666667,,57.40416666666667
18,2006-11-16,70.08749999999999,,70.08749999999999
18,2006-11-17,66.51666666666667,,66.51666666666667
18,2006-11-18,87.79166666666667,,87.79166666666667
18,2006-11-19,87.37083333333334,,87.37083333333334
18,2006-11-20,84.53750000000001,,84.53750000000001
18,2006-11-21,102.09583333333335,,102.09583333333335
18,2006-11-22,88.78333333333335,,88.78333333333335
18,2006-11-23,100.10000000000001,,100.10000000000001
18,2006-11-24,133.35416666666666,,133.35416666666666
18,2006-11-25,122.91666666666667,,122.91666666666667
18,2006-11-26,150.29999999999998,,150.29999999999998
18,2006-11-27,156.49583333333334,,156.49583333333334
18,2006-11-28,170.40833333333333,,170.40833333333333
18,2006-11-29,179.8083333333333,,179.8083333333333
18,2006-11-30,173.275,,173.275
18,2006-12-01,97.20416666666667,,97.20416666666667
18,2006-12-02,41.55833333333333,,41.55833333333333
18,2006-12-03,26.395833333333332,,26.395833333333332
18,2006-12-04,51.291666666666664,,51.291666666666664
18,2006-12-05,87.62083333333334,,87.62083333333334
18,2006-12-06,119.14166666666667,,119.14166666666667
18,2006-12-07,114.15416666666665,,114.15416666666665
18,2006-12-08,118.77499999999999,,118.77499999999999
18,2006-12-09,60.15833333333333,,60.15833333333333
18,2006-12-10,78.60000000000001,,78.60000000000001
18,2006-12-11,122.15833333333335,,122.15833333333335
18,2006-12-12,121.31666666666666,,121.31666666666666
18,2006-12-13,99.05416666666667,,99.05416666666667
18,2006-12-14,122.10000000000001,,122.10000000000001
18,2006-12-15,112.86666666666667,,112.86666666666667
18,2006-12-16,69.41666666666667,,69.41666666666667
18,2006-12-17,75.22916666666667,,75.22916666666667
18,2006-12-18,98.25416666666666,,98.25416666666666
18,2006-12-19,148.775,,148.775
18,2006-12-20,149.91666666666666,,149.91666666666666
18,2006-12-21,146.56666666666666,,146.56666666666666
18,2006-12-22,151.94166666666666,,151.94166666666666
18,2006-12-23,117.9375,,117.9375
18,2006-12-24,59.925000000000004,,59.925000000000004
18,2006-12-25,174.225,,174.225
18,2006-12-26,175.67916666666667,,175.67916666666667
18,2006-12-27,179.21666666666667,,179.21666666666667
18,2006-12-28,175.9125,,175.9125
18,2006-12-29,184.4416666666667,,184.4416666666667
18,2006-12-30,177.85,,177.85
18,2006-12-31,179.15833333333333,,179.15833333333333
18,2007-01-01,174.83333333333334,,174.83333333333334
18,2007-01-02,181.59583333333333,,181.59583333333333
18,2007-01-03,181.40833333333333,,181.40833333333333
18,2007-01-04,177.29999999999998,,177.29999999999998
18,2007-01-05,172.04583333333335,,172.04583333333335
18,2007-01-06,172.3083333333333,,172.3083333333333
18,2007-01-07,177.36666666666667,,177.36666666666667
18,2007-01-08,142.74583333333334,,142.74583333333334
18,2007-01-09,177.2125,,177.2125
18,2007-01-10,193.69583333333333,,193.69583333333333
18,2007-01-11,193.86249999999998,,193.86249999999998
18,2007-01-12,188.89166666666665,,188.89166666666665
18,2007-01-13,183.79999999999998,,183.79999999999998
18,2007-01-14,175.57500000000002,,175.57500000000002
18,2007-01-15,115.825,,115.825
18,2007-01-16,181.525,,181.525
18,2007-01-17,183.10833333333335,,183.10833333333335
18,2007-01-18,185.84583333333333,,185.84583333333333
18,2007-01-19,189.08333333333334,,189.08333333333334
18,2007-01-20,190.5666666666667,,190.5666666666667
18,2007-01-21,190.9375,,190.9375
18,2007-01-22,189.98749999999998,,189.98749999999998
18,2007-01-23,189.82500000000002,,189.82500000000002
18,2007-01-24,189.80416666666667,,189.80416666666667
18,2007-01-25,190.82083333333333,,190.82083333333333
18,2007-01-26,190.11666666666667,,190.11666666666667
18,2007-01-27,185.23749999999998,,185.23749999999998
18,2007-01-28,188.57916666666665,,188.57916666666665
18,2007-01-29,190.07916666666665,,190.07916666666665
18,2007-01-30,176.625,,176.625
18,2007-01-31,189.61666666666667,,189.61666666666667
18,2007-02-01,189.57500000000002,,189.57500000000002
18,2007-02-02,187.8125,,187.8125
18,2007-02-03,189.3166666666667,,189.3166666666667
18,2007-02-04,189.20833333333334,,189.20833333333334
18,2007-02-05,190.03333333333333,,190.03333333333333
18,2007-02-06,189.82083333333333,,189.82083333333333
18,2007-02-07,143.81666666666666,,143.81666666666666
18,2007-02-08,115.52499999999999,,115.52499999999999
18,2007-02-09,119.86666666666667,,119.86666666666667
18,2007-02-10,151.12083333333334,,151.12083333333334
18,2007-02-11,161.87083333333334,,161.87083333333334
18,2007-02-12,182.07083333333333,,182.07083333333333
18,2007-02-13,176.975,,176.975
18,2007-02-14,175.625,,175.625
18,2007-02-15,167.35,,167.35
18,2007-02-16,179.70416666666665,,179.70416666666665
18,2007-02-17,189.0625,,189.0625
18,2007-02-18,189.45000000000002,,189.45000000000002
18,2007-02-19,188.91666666666666,,188.91666666666666
18,2007-02-20,184.20416666666665,,184.20416666666665
18,2007-02-21,173.74166666666667,,173.74166666666667
18,2007-02-22,182.95833333333334,,182.95833333333334
18,2007-02-23,184.75833333333333,,184.75833333333333
18,2007-02-24,171.45000000000002,,171.45000000000002
18,2007-02-25,176.29166666666666,,176.29166666666666
18,2007-02-26,178.2458333333333,,178.2458333333333
18,2007-02-27,179.1291666666667,,179.1291666666667
18,2007-02-28,175.48749999999998,,175.48749999999998
18,2007-03-01,168.32500000000002,,168.32500000000002
18,2007-03-02,160.44166666666666,,160.44166666666666
18,2007-03-03,163.02916666666667,,163.02916666666667
18,2007-03-04,142.95000000000002,,142.95000000000002
18,2007-03-05,134.70416666666668,,134.70416666666668
18,2007-03-06,156.50416666666666,,156.50416666666666
18,2007-03-07,167.26250000000002,,167.26250000000002
18,2007-03-08,153.42499999999998,,153.42499999999998
18,2007-03-09,135.28333333333333,,135.28333333333333
18,2007-03-10,117.02499999999999,,117.02499999999999
18,2007-03-11,116.95833333333333,,116.95833333333333
18,2007-03-12,127.95833333333333,,127.95833333333333
18,2007-03-13,143.94583333333333,,143.94583333333333
18,2007-03-14,139.725,,139.725
18,2007-03-15,119.3,,119.3
18,2007-03-16,129.13333333333333,,129.13333333333333
18,2007-03-17,132.63750000000002,,132.63750000000002
18,2007-03-18,123.97083333333335,,123.97083333333335
18,2007-03-19,116.79166666666667,,116.79166666666667
18,2007-03-20,114.60416666666667,,114.60416666666667
18,2007-03-21,127.53750000000001,,127.53750000000001
18,2007-03-22,130.475,,130.475
18,2007-03-23,143.88333333333333,,143.88333333333333
18,2007-03-24,163.69583333333333,,163.69583333333333
18,2007-03-25,143.85416666666666,,143.85416666666666
18,2007-03-26,170.60416666666666,,170.60416666666666
18,2007-03-27,187.32500000000002,,187.32500000000002
18,2007-03-28,197.3125,,197.3125
18,2007-03-29,171.1833333333333,,171.1833333333333
18,2007-03-30,195.80416666666667,,195.80416666666667
18,2007-03-31,166.53333333333333,,166.53333333333333
18,2007-04-01,159.23749999999998,,159.23749999999998
18,2007-04-02,177.60833333333335,,177.60833333333335
18,2007-04-03,157.71666666666667,,157.71666666666667
18,2007-04-04,167.07500000000002,,167.07500000000002
18,2007-04-05,184.2458333333333,,184.2458333333333
18,2007-04-06,169.44166666666666,,169.44166666666666
18,2007-04-07,174.48749999999998,,174.48749999999998
18,2007-04-08,179.55416666666667,,179.55416666666667
18,2007-04-09,187.5875,,187.5875
18,2007-04-10,169.14166666666668,,169.14166666666668
18,2007-04-11,179.1291666666667,,179.1291666666667
18,2007-04-12,169.80416666666667,,169.80416666666667
18,2007-04-13,171.46666666666667,,171.46666666666667
18,2007-04-14,175.42083333333335,,175.42083333333335
18,2007-04-15,175.6208333333333,,175.6208333333333
18,2007-04-16,176.8791666666667,,176.8791666666667
18,2007-04-17,180.29166666666666,,180.29166666666666
18,2007-04-18,169.15416666666667,,169.15416666666667
18,2007-04-19,169.4,,169.4
18,2007-04-20,183.22916666666666,,183.22916666666666
18,2007-04-21,132.36666666666667,,132.36666666666667
18,2007-04-22,185.95833333333334,,185.95833333333334
18,2007-04-23,181.40833333333333,,181.40833333333333
18,2007-04-24,189.3083333333333,,189.3083333333333
18,2007-04-25,177.3791666666667,,177.3791666666667
18,2007-04-26,189.1875,,189.1875
18,2007-04-27,184.67916666666667,,184.67916666666667
18,2007-04-28,186.3708333333333,,186.3708333333333
18,2007-04-29,185.65416666666667,,185.65416666666667
18,2007-04-30,186.1875,,186.1875
18,2007-05-01,189.09166666666667,,189.09166666666667
18,2007-05-02,188.27916666666667,,188.27916666666667
18,2007-05-03,189.88333333333333,,189.88333333333333
18,2007-05-04,188.82500000000002,,188.82500000000002
18,2007-05-05,187.35833333333335,,187.35833333333335
18,2007-05-06,189.59166666666667,,189.59166666666667
18,2007-05-07,158.25,,158.25
18,2007-05-08,157.73749999999998,,157.73749999999998
18,2007-05-09,177.89166666666665,,177.89166666666665
18,2007-05-10,173.84166666666667,,173.84166666666667
18,2007-05-11,177.275,,177.275
18,2007-05-12,183.55416666666667,,183.55416666666667
18,2007-05-13,184.29583333333335,,184.29583333333335
18,2007-05-14,182.5666666666667,,182.5666666666667
18,2007-05-15,175.61249999999998,,175.61249999999998
18,2007-05-16,178.8375,,178.8375
18,2007-05-17,160.88750000000002,,160.88750000000002
18,2007-05-18,173.07916666666665,,173.07916666666665
18,2007-05-19,173.64166666666665,,173.64166666666665
18,2007-05-20,160.10833333333332,,160.10833333333332
18,2007-05-21,177.65833333333333,,177.65833333333333
18,2007-05-22,181.3083333333333,,181.3083333333333
18,2007-05-23,161.99166666666667,,161.99166666666667
18,2007-05-24,166.7875,,166.7875
18,2007-05-25,168.875,,168.875
18,2007-05-26,182.26250000000002,,182.26250000000002
18,2007-05-27,164.29166666666666,,164.29166666666666
18,2007-05-28,154.96666666666667,,154.96666666666667
18,2007-05-29,170.19583333333333,,170.19583333333333
18,2007-05-30,176.92916666666667,,176.92916666666667
18,2007-05-31,176.70416666666665,,176.70416666666665
18,2007-06-01,175.975,,175.975
18,2007-06-02,167.17083333333332,,167.17083333333332
18,2007-06-03,167.31666666666666,,167.31666666666666
18,2007-06-04,174.00833333333333,,174.00833333333333
18,2007-06-05,181.0625,,181.0625
18,2007-06-06,170.2875,,170.2875
18,2007-06-07,168.84166666666667,,168.84166666666667
18,2007-06-08,125.32916666666667,,125.32916666666667
18,2007-06-09,134.5625,,134.5625
18,2007-06-10,183.6,,183.6
18,2007-06-11,181.77083333333334,,181.77083333333334
18,2007-06-12,171.54999999999998,,171.54999999999998
18,2007-06-13,173.48749999999998,,173.48749999999998
18,2007-06-14,179.38750000000002,,179.38750000000002
18,2007-06-15,174.70000000000002,,174.70000000000002
18,2007-06-16,164.22916666666666,,164.22916666666666
18,2007-06-17,150.37916666666666,,150.37916666666666
18,2007-06-18,142.9,,142.9
18,2007-06-19,127.52083333333333,,127.52083333333333
18,2007-06-20,114.41666666666667,,114.41666666666667
18,2007-06-21,38.43333333333333,,38.43333333333333
18,2007-06-22,36.34166666666667,,36.34166666666667
18,2007-06-23,51.40416666666667,,51.40416666666667
18,2007-06-24,37.516666666666666,,37.516666666666666
18,2007-06-25,21.46666666666667,,21.46666666666667
18,2007-06-26,56.18333333333334,,56.18333333333334
18,2007-06-27,35.266666666666666,,35.266666666666666
18,2007-06-28,26.854166666666668,,26.854166666666668
18,2007-06-29,102.83749999999999,,102.83749999999999
18,2007-06-30,103.64999999999999,,103.64999999999999
18,2007-07-01,144.475,,144.475
18,2007-07-02,128.225,,128.225
18,2007-07-03,139.15416666666667,,139.15416666666667
18,2007-07-04,146.15416666666667,,146.15416666666667
18,2007-07-05,146.12916666666666,,146.12916666666666
18,2007-07-06,156.65,,156.65
18,2007-07-07,171.67499999999998,,171.67499999999998
18,2007-07-08,178.20833333333334,,178.20833333333334
18,2007-07-09,178.34583333333333,,178.34583333333333
18,2007-07-10,178.20000000000002,,178.20000000000002
18,2007-07-11,180.49166666666667,,180.49166666666667
18,2007-07-12,185.875,,185.875
18,2007-07-13,186.2125,,186.2125
18,2007-07-14,175.46666666666667,,175.46666666666667
18,2007-07-15,176.35833333333335,,176.35833333333335
18,2007-07-16,185.4,,185.4
18,2007-07-17,185.5041666666667,,185.5041666666667
18,2007-07-18,182.59583333333333,,182.59583333333333
18,2007-07-19,132.29999999999998,,132.29999999999998
18,2007-07-20,142.37916666666666,,142.37916666666666
18,2007-07-21,175.2541666666667,,175.2541666666667
18,2007-07-22,184.40833333333333,,184.40833333333333
18,2007-07-23,175.42499999999998,,175.42499999999998
18,2007-07-24,144.95000000000002,,144.95000000000002
18,2007-07-25,138.4375,,138.4375
18,2007-07-26,154.475,,154.475
18,2007-07-27,172.88333333333333,,172.88333333333333
18,2007-07-28,178.51250000000002,,178.51250000000002
18,2007-07-29,170.62916666666666,,170.62916666666666
18,2007-07-30,165.93333333333334,,165.93333333333334
18,2007-07-31,172.8166666666667,,172.8166666666667
18,2007-08-01,175.79999999999998,,175.79999999999998
18,2007-08-02,178.0041666666667,,178.0041666666667
18,2007-08-03,177.90416666666667,,177.90416666666667
18,2007-08-04,156.4,,156.4
18,2007-08-05,163.58333333333334,,163.58333333333334
18,2007-08-06,174.20833333333334,,174.20833333333334
18,2007-08-07,176.95416666666665,,176.95416666666665
18,2007-08-08,174.22916666666666,,174.22916666666666
18,2007-08-09,179.40833333333333,,179.40833333333333
18,2007-08-10,180.1875,,180.1875
18,2007-08-11,181.42083333333335,,181.42083333333335
18,2007-08-12,180.2541666666667,,180.2541666666667
18,2007-08-13,161.0625,,161.0625
18,2007-08-14,174.96666666666667,,174.96666666666667
18,2007-08-15,161.90416666666667,,161.90416666666667
18,2007-08-16,175.08333333333334,,175.08333333333334
18,2007-08-17,172.07500000000002,,172.07500000000002
18,2007-08-18,162.83333333333334,,162.83333333333334
18,2007-08-19,160.95000000000002,,160.95000000000002
18,2007-08-20,160.92083333333332,,160.92083333333332
18,2007-08-21,160.86666666666667,,160.86666666666667
18,2007-08-22,174.225,,174.225
18,2007-08-23,151.67083333333332,,151.67083333333332
18,2007-08-24,150.65833333333333,,150.65833333333333
18,2007-08-25,159.42916666666667,,159.42916666666667
18,2007-08-26,148.32500000000002,,148.32500000000002
18,2007-08-27,163.85416666666666,,163.85416666666666
18,2007-08-28,168.81666666666666,,168.81666666666666
18,2007-08-29,148.76250000000002,,148.76250000000002
18,2007-08-30,142.32916666666668,,142.32916666666668
18,2007-08-31,154.70833333333334,,154.70833333333334
18,2007-09-01,143.45416666666668,,143.45416666666668
18,2007-09-02,132.97083333333333,,132.97083333333333
18,2007-09-03,110.10416666666667,,110.10416666666667
18,2007-09-04,129.05833333333334,,129.05833333333334
18,2007-09-05,140.92916666666667,,140.92916666666667
18,2007-09-06,152.37083333333334,,152.37083333333334
18,2007-09-07,130.30833333333334,,130.30833333333334
18,2007-09-08,144.15,,144.15
18,2007-09-09,148.85,,148.85
18,2007-09-10,168.94166666666666,,168.94166666666666
18,2007-09-11,153.69166666666666,,153.69166666666666
18,2007-09-12,153.525,,153.525
18,2007-09-13,148.34166666666667,,148.34166666666667
18,2007-09-14,163.59166666666667,,163.59166666666667
18,2007-09-15,158.89166666666668,,158.89166666666668
18,2007-09-16,158.98749999999998,,158.98749999999998
18,2007-09-17,145.475,,145.475
18,2007-09-18,160.27916666666667,,160.27916666666667
18,2007-09-19,158.26666666666668,,158.26666666666668
18,2007-09-20,168.44166666666666,,168.44166666666666
18,2007-09-21,163.52916666666667,,163.52916666666667
18,2007-09-22,172.45000000000002,,172.45000000000002
18,2007-09-23,159.225,,159.225
18,2007-09-24,175.35833333333335,,175.35833333333335
18,2007-09-25,137.15833333333333,,137.15833333333333
18,2007-09-26,151.14166666666668,,151.14166666666668
18,2007-09-27,150.25416666666666,,150.25416666666666
18,2007-09-28,136.15,,136.15
18,2007-09-29,136.12083333333334,,136.12083333333334
18,2007-09-30,136.12916666666666,,136.12916666666666
18,2007-10-01,158.70000000000002,,158.70000000000002
18,2007-10-02,122.08333333333333,,122.08333333333333
18,2007-10-03,144.40833333333333,,144.40833333333333
18,2007-10-04,155.17499999999998,,155.17499999999998
18,2007-10-05,161.70416666666668,,161.70416666666668
18,2007-10-06,154.225,,154.225
18,2007-10-07,164.60416666666666,,164.60416666666666
18,2007-10-08,168.55833333333334,,168.55833333333334
18,2007-10-09,156.39583333333334,,156.39583333333334
18,2007-10-10,161.11249999999998,,161.11249999999998
18,2007-10-11,165.01666666666668,,165.01666666666668
18,2007-10-12,164.89166666666668,,164.89166666666668
18,2007-10-13,142.98749999999998,,142.98749999999998
18,2007-10-14,152.88333333333333,,152.88333333333333
18,2007-10-15,168.77916666666667,,168.77916666666667
18,2007-10-16,168.87083333333334,,168.87083333333334
18,2007-10-17,132.81666666666666,,132.81666666666666
18,2007-10-18,149.34583333333333,,149.34583333333333
18,2007-10-19,145.61666666666667,,145.61666666666667
18,2007-10-20,135.17916666666667,,135.17916666666667
18,2007-10-21,154.00416666666666,,154.00416666666666
18,2007-10-22,174.15416666666667,,174.15416666666667
18,2007-10-23,167.44583333333333,,167.44583333333333
18,2007-10-24,181.45416666666665,,181.45416666666665
18,2007-10-25,176.1916666666667,,176.1916666666667
18,2007-10-26,182.69583333333333,,182.69583333333333
18,2007-10-27,189.225,,189.225
18,2007-10-28,176.525,,176.525
18,2007-10-29,185.15416666666667,,185.15416666666667
18,2007-10-30,184.74166666666667,,184.74166666666667
18,2007-10-31,186.64583333333334,,186.64583333333334
18,2007-11-01,188.44583333333333,,188.44583333333333
18,2007-11-02,180.53333333333333,,180.53333333333333
18,2007-11-03,155.72916666666666,,155.72916666666666
18,2007-11-04,155.13750000000002,,155.13750000000002
18,2007-11-05,175.07500000000002,,175.07500000000002
18,2007-11-06,155.28333333333333,,155.28333333333333
18,2007-11-07,157.125,,157.125
18,2007-11-08,156.92916666666667,,156.92916666666667
18,2007-11-09,162.38750000000002,,162.38750000000002
18,2007-11-10,164.84166666666667,,164.84166666666667
18,2007-11-11,164.83333333333334,,164.83333333333334
18,2007-11-12,164.75833333333333,,164.75833333333333
18,2007-11-13,167.5375,,167.5375
18,2007-11-14,168.87916666666666,,168.87916666666666
18,2007-11-15,165.025,,165.025
18,2007-11-16,163.4625,,163.4625
18,2007-11-17,168.98749999999998,,168.98749999999998
18,2007-11-18,168.90833333333333,,168.90833333333333
18,2007-11-19,168.97083333333333,,168.97083333333333
18,2007-11-20,169.0,,169.0
18,2007-11-21,168.75833333333333,,168.75833333333333
18,2007-11-22,169.07500000000002,,169.07500000000002
18,2007-11-23,152.45416666666668,,152.45416666666668
18,2007-11-24,170.225,,170.225
18,2007-11-25,170.48749999999998,,170.48749999999998
18,2007-11-26,170.19583333333333,,170.19583333333333
18,2007-11-27,170.28333333333333,,170.28333333333333
18,2007-11-28,173.82083333333333,,173.82083333333333
18,2007-11-29,169.20833333333334,,169.20833333333334
18,2007-11-30,183.66666666666666,,183.66666666666666
18,2007-12-01,152.4125,,152.4125
18,2007-12-02,153.67083333333332,,153.67083333333332
18,2007-12-03,144.0875,,144.0875
18,2007-12-04,156.20000000000002,,156.20000000000002
18,2007-12-05,158.35416666666666,,158.35416666666666
18,2007-12-06,158.375,,158.375
18,2007-12-07,161.88750000000002,,161.88750000000002
18,2007-12-08,164.10416666666666,,164.10416666666666
18,2007-12-09,164.10416666666666,,164.10416666666666
18,2007-12-10,164.75833333333333,,164.75833333333333
18,2007-12-11,166.95416666666668,,166.95416666666668
18,2007-12-12,167.14583333333334,,167.14583333333334
18,2007-12-13,165.775,,165.775
18,2007-12-14,137.50416666666666,,137.50416666666666
18,2007-12-15,119.075,,119.075
18,2007-12-16,115.02916666666665,,115.02916666666665
18,2007-12-17,133.90416666666667,,133.90416666666667
18,2007-12-18,153.74166666666667,,153.74166666666667
18,2007-12-19,166.4,,166.4
18,2007-12-20,168.97916666666666,,168.97916666666666